Las Vegas, NM

5:22 AM MST on December 15, 2017 (GMT -0700)
Las Vegas Municipal

Weather History for KLVS - March, 2012

Change the Weather History Date:

Friday, March 2, 2012

  Actual Average Record
Temperature  
Mean Temperature 26 °F -  
Max Temperature 37 °F 52 °F 73 °F (2009)
Min Temperature 14 °F 25 °F 0 °F (1965)
Degree Days  
Heating Degree Days 40    
Moisture  
Dew Point 18 °F    
Average Humidity 84    
Maximum Humidity 100    
Minimum Humidity 22    
Precipitation  
Precipitation 0.04 in - - ()
Sea Level Pressure  
Sea Level Pressure 29.90 in    
Wind  
Wind Speed 10 mph (NE)    
Max Wind Speed 29 mph    
Max Gust Speed 40 mph    
Visibility 4 miles    
Events Fog , Snow    
Averages and records for this station are not official NWS values.
T = Trace of Precipitation, MM = Missing Value Source: NWS Daily Summary

Daily Weather History Graph

Daily Weather History Graph

Search for Another Location

Airport or City:

Trip Planner

Search our weather history database for the weather conditions in past years. The results will help you decide how hot, cold, wet, or windy it might be!

Date:

Astronomy

Mar. 02, 2012 Rise Set
Actual Time 6:28 AM MST 5:57 PM MST
Civil Twilight 6:02 AM MST 6:22 PM MST
Nautical Twilight 5:33 AM MST 6:52 PM MST
Astronomical Twilight 5:03 AM MST 7:21 PM MST
Moon 12:20 PM MST (3/2) 2:11 AM MST (3/2)
Length of Visible Light 12h 19m
Length of Day
11h 28m
Waxing Gibbous, 67% of the Moon is Illuminated
Mar 2
Waxing Gibbous
Mar 8
Full
Mar 14
Last Quarter
Mar 22
New
Mar 30
First Quarter

Hourly Weather History & Observations

Time (MST) Temp. Windchill Dew Point Humidity Pressure Visibility Wind Dir Wind Speed Gust Speed Precip Events Conditions
12:53 AM 28.9 °F 25.2 °F -2.9 °F 25% 29.69 in 10.0 mi West 3.5 mph - N/A   Overcast
1:53 AM 26.1 °F 18.4 °F -8.0 °F 22% 29.68 in 10.0 mi West 6.9 mph - N/A   Clear
2:53 AM 23.0 °F 14.7 °F -4.0 °F 31% 29.68 in 10.0 mi East 6.9 mph - N/A   Overcast
3:53 AM 23.0 °F 15.8 °F -2.9 °F 32% 29.68 in 10.0 mi South 5.8 mph - N/A   Mostly Cloudy
4:53 AM 23.0 °F - -5.1 °F 29% 29.67 in 10.0 mi Calm Calm - N/A   Overcast
5:53 AM 25.0 °F 16.3 °F -0.0 °F 34% 29.68 in 10.0 mi SSE 8.1 mph - N/A   Overcast
6:53 AM 25.0 °F 14.8 °F 5.0 °F 43% 29.68 in 10.0 mi South 10.4 mph - N/A   Overcast
7:53 AM 25.0 °F 10.9 °F 21.0 °F 85% 29.72 in 9.0 mi South 19.6 mph - 0.00 in Snow Light Snow
8:29 AM 26.6 °F 15.2 °F 21.2 °F 80% 29.76 in 2.5 mi South 13.8 mph - 0.00 in Snow Light Snow
8:39 AM 30.2 °F 19.3 °F 21.2 °F 69% 29.77 in 7.0 mi SSW 15.0 mph - 0.00 in Snow Light Snow
8:53 AM 32.0 °F 19.5 °F 19.9 °F 61% 29.72 in 10.0 mi SSW 21.9 mph 25.3 mph 0.00 in   Mostly Cloudy
9:53 AM 37.0 °F 24.7 °F 16.0 °F 42% 29.69 in 10.0 mi SW 28.8 mph 39.1 mph N/A   Partly Cloudy
10:37 AM 32.0 °F 19.5 °F 23.0 °F 69% 29.81 in 1.8 mi WNW 21.9 mph 29.9 mph 0.00 in Snow Light Snow
10:41 AM 28.4 °F 15.8 °F 21.2 °F 74% 29.81 in 0.8 mi North 18.4 mph 40.3 mph 0.00 in Snow Light Snow
10:50 AM 28.4 °F 18.0 °F 24.8 °F 86% 29.80 in 0.2 mi North 12.7 mph 18.4 mph 0.00 in Fog , Snow Snow
10:53 AM 27.0 °F 15.6 °F 23.0 °F 85% 29.80 in 0.2 mi NE 13.8 mph 20.7 mph 0.00 in Fog , Snow Snow
11:01 AM 24.8 °F 10.7 °F 21.2 °F 86% 29.81 in 0.5 mi ENE 19.6 mph 25.3 mph 0.00 in Fog , Snow Snow
11:19 AM 24.8 °F 10.0 °F 23.0 °F 93% 29.80 in 1.0 mi NE 21.9 mph - 0.00 in Snow Light Snow
11:26 AM 24.8 °F 10.7 °F 23.0 °F 93% 29.81 in 3.0 mi ENE 19.6 mph - 0.00 in Snow Light Snow
11:36 AM 24.8 °F 10.3 °F 23.0 °F 93% 29.81 in 4.0 mi ENE 20.7 mph - 0.00 in Snow Light Snow
11:46 AM 24.8 °F 11.5 °F 23.0 °F 93% 29.82 in 3.0 mi ENE 17.3 mph - 0.00 in Snow Light Snow
11:48 AM 24.8 °F 11.5 °F 21.2 °F 86% 29.82 in 2.0 mi ENE 17.3 mph - 0.00 in Snow Light Snow
11:53 AM 24.1 °F 11.0 °F 21.9 °F 91% 29.83 in 1.0 mi ENE 16.1 mph - 0.00 in Snow Light Snow
12:01 PM 23.0 °F 8.7 °F 21.2 °F 93% 29.83 in 0.5 mi NE 18.4 mph - 0.00 in Fog , Snow Snow
12:07 PM 24.8 °F 11.5 °F 21.2 °F 86% 29.82 in 0.2 mi NE 17.3 mph - 0.01 in Fog , Snow Snow
12:49 PM 23.0 °F 9.6 °F 21.2 °F 93% 29.83 in 0.5 mi ENE 16.1 mph - 0.02 in Fog , Snow Snow
12:53 PM 23.0 °F 9.2 °F 21.0 °F 92% 29.85 in 0.2 mi NE 17.3 mph - 0.02 in Fog , Snow Heavy Snow
1:22 PM 24.8 °F 13.4 °F 21.2 °F 86% 29.85 in 0.8 mi ENE 12.7 mph - 0.01 in Snow Light Snow
1:25 PM 24.8 °F 12.9 °F 21.2 °F 86% 29.85 in 1.0 mi NE 13.8 mph - 0.01 in Snow Light Snow
1:34 PM 24.8 °F 12.9 °F 19.4 °F 80% 29.85 in 2.0 mi NE 13.8 mph - 0.01 in Snow Light Snow
1:53 PM 24.1 °F 12.0 °F 21.0 °F 88% 29.88 in 1.5 mi ENE 13.8 mph - 0.01 in Snow Light Snow
2:27 PM 26.6 °F 15.7 °F 23.0 °F 86% 29.87 in 2.0 mi ENE 12.7 mph - 0.00 in Snow Light Snow
2:30 PM 26.6 °F 14.7 °F 23.0 °F 86% 29.87 in 2.0 mi ENE 15.0 mph - 0.00 in Snow Light Snow
2:36 PM 24.8 °F 12.4 °F 21.2 °F 86% 29.87 in 0.8 mi NE 15.0 mph - 0.00 in Snow Light Snow
2:46 PM 24.8 °F 13.4 °F 21.2 °F 86% 29.88 in 1.0 mi NE 12.7 mph - 0.00 in Snow Light Snow
2:53 PM 25.0 °F 14.2 °F 21.0 °F 85% 29.92 in 1.2 mi NE 11.5 mph - 0.00 in Snow Light Snow
3:29 PM 26.6 °F 20.0 °F 21.2 °F 80% 29.90 in 1.0 mi North 5.8 mph - 0.00 in Snow Light Snow
3:33 PM 24.8 °F 19.1 °F 21.2 °F 86% 29.90 in 0.8 mi NNW 4.6 mph - 0.00 in Snow Light Snow
3:48 PM 24.8 °F 14.6 °F 23.0 °F 93% 29.91 in 1.2 mi NE 10.4 mph - 0.01 in Snow Light Snow
3:49 PM 24.8 °F 15.3 °F 23.0 °F 93% 29.91 in 1.5 mi NE 9.2 mph - 0.01 in Snow Light Snow
3:53 PM 25.0 °F 15.5 °F 21.9 °F 88% 29.95 in 2.5 mi NE 9.2 mph - 0.01 in Snow Light Snow
4:00 PM 24.8 °F 16.1 °F 23.0 °F 93% 29.91 in 5.0 mi NE 8.1 mph - 0.00 in Snow Light Snow
4:08 PM 24.8 °F 16.1 °F 23.0 °F 93% 29.91 in 3.0 mi NE 8.1 mph - 0.00 in Snow Light Snow
4:26 PM 24.8 °F 15.3 °F 23.0 °F 93% 29.92 in 7.0 mi ENE 9.2 mph - 0.00 in Snow Light Snow
4:34 PM 24.8 °F 13.4 °F 21.2 °F 86% 29.92 in 2.5 mi NE 12.7 mph - 0.00 in Snow Light Snow
4:39 PM 24.8 °F 14.6 °F 21.2 °F 86% 29.92 in 1.0 mi NE 10.4 mph - 0.00 in Snow Light Snow
4:43 PM 24.8 °F 12.4 °F 23.0 °F 93% 29.92 in 0.8 mi NE 15.0 mph - 0.00 in Snow Light Snow
4:53 PM 23.0 °F 12.4 °F 21.0 °F 92% 29.98 in 1.5 mi NE 10.4 mph - 0.00 in Snow Light Snow
4:59 PM 23.0 °F 14.7 °F 21.2 °F 93% 29.93 in 2.0 mi NE 6.9 mph - 0.00 in Snow Light Snow
5:09 PM 23.0 °F 13.9 °F 21.2 °F 93% 29.94 in 1.8 mi NE 8.1 mph - 0.00 in Snow Light Snow
5:39 PM 23.0 °F 17.0 °F 21.2 °F 93% 29.95 in 9.0 mi NE 4.6 mph - 0.00 in Snow Light Snow
5:53 PM 21.9 °F 15.7 °F 21.0 °F 96% 30.00 in 3.0 mi NE 4.6 mph - 0.00 in Snow Light Snow
6:12 PM 21.2 °F 11.7 °F 19.4 °F 93% 29.96 in 4.0 mi NE 8.1 mph - 0.00 in Snow Light Snow
6:21 PM 21.2 °F 8.9 °F 21.2 °F 100% 29.97 in 2.0 mi NNE 12.7 mph - 0.00 in Snow Light Snow
6:31 PM 21.2 °F 11.7 °F 19.4 °F 93% 29.98 in 5.0 mi NNE 8.1 mph - 0.00 in Snow Light Snow
6:40 PM 21.2 °F 11.7 °F 21.2 °F 100% 29.98 in 7.0 mi NE 8.1 mph - 0.00 in Snow Light Snow
6:53 PM 21.9 °F 13.4 °F 21.0 °F 96% 30.04 in 9.0 mi NE 6.9 mph - 0.00 in   Overcast
7:18 PM 21.2 °F 13.6 °F 21.2 °F 100% 30.00 in 10.0 mi NNE 5.8 mph - N/A   Overcast
7:48 PM 19.4 °F 11.5 °F 17.6 °F 93% 30.00 in 9.0 mi NE 5.8 mph - 0.00 in   Overcast
7:53 PM 19.9 °F 12.1 °F 19.0 °F 96% 30.05 in 10.0 mi ENE 5.8 mph - 0.00 in   Overcast
8:07 PM 19.4 °F 14.3 °F 19.4 °F 100% 30.00 in 10.0 mi North 3.5 mph - N/A   Mostly Cloudy
8:23 PM 19.4 °F 14.3 °F 17.6 °F 93% 30.01 in 10.0 mi ENE 3.5 mph - N/A   Scattered Clouds
8:28 PM 17.6 °F - 17.6 °F 100% 30.01 in 1.8 mi Calm Calm - N/A   Partly Cloudy
8:39 PM 19.4 °F 12.8 °F 17.6 °F 93% 30.02 in 3.0 mi North 4.6 mph - N/A   Clear
8:42 PM 19.4 °F - 17.6 °F 93% 30.02 in 1.2 mi Calm Calm - N/A   Partly Cloudy
8:44 PM 17.6 °F - 17.6 °F 100% 30.02 in 0.8 mi Calm Calm - N/A   Mist
8:53 PM 14.0 °F - 14.0 °F 100% 30.08 in 0.2 mi Calm Calm - N/A Fog Light Freezing Fog
9:23 PM 17.6 °F 12.3 °F 15.8 °F 93% 30.03 in 0.8 mi WSW 3.5 mph - N/A   Mist
9:42 PM 17.6 °F 12.3 °F 17.6 °F 100% 30.04 in 0.8 mi North 3.5 mph - N/A   Clear
9:49 PM 17.6 °F - 17.6 °F 100% 30.04 in 0.5 mi Calm Calm - N/A Fog Light Freezing Fog
9:53 PM 17.1 °F - 17.1 °F 100% 30.06 in 0.5 mi Calm Calm - N/A Fog Light Freezing Fog
10:00 PM 17.6 °F - 17.6 °F 100% 30.04 in 0.2 mi Calm Calm - N/A Fog Light Freezing Fog
10:06 PM 17.6 °F 10.7 °F 17.6 °F 100% 30.04 in 1.0 mi NW 4.6 mph - N/A   Mostly Cloudy
10:14 PM 19.4 °F 12.8 °F 17.6 °F 93% 30.05 in 3.0 mi NNW 4.6 mph - N/A   Mostly Cloudy
10:31 PM 15.8 °F 6.1 °F 14.0 °F 93% 30.05 in 1.8 mi NNW 6.9 mph - N/A   Mostly Cloudy
10:43 PM 15.8 °F 8.6 °F 14.0 °F 93% 30.05 in 3.0 mi North 4.6 mph - N/A   Mostly Cloudy
10:53 PM 17.1 °F 11.7 °F 14.0 °F 88% 30.12 in 10.0 mi North 3.5 mph - N/A   Scattered Clouds
11:53 PM 15.1 °F - 12.9 °F 91% 30.14 in 10.0 mi Calm Calm - N/A   Clear